Location: Newark
(48.2308°N, 120.8549°W)
Time: 03:19:52
(UTC+00:00)

FENGYUN 1C DEB - Pass Details

Date: 03 February 2022
Orbit: 822 x 948 km, 99.2° (Epoch: 28 May)

Event Time Altitude Azimuth Distance (km) Brightness Sun altitude
Rises 01:37:34 0° 116° (ESE) 3,615 ? -5.9°
Reaches altitude 10° 01:40:37 10° 101° (E) 2,667 ? -6.4°
Maximum altitude 01:44:52 21° 55° (NE) 1,993 ? -7.1°
Drops below altitude 10° 01:49:04 10° 10° (N) 2,638 ? -7.7°
Sets 01:52:03 0° 355° (N) 3,565 ? -8.2°
